User: anonymous   Login
Location: Kunchanapalle
(16.4623°N, 80.6176°E)
Time: 13:51:59
(UTC+00:00)
Language:

GPS 2-04 Rocket1 - Orbit

View from above orbital plane
View from above orbital plane
View from above satellite
View from above satellite

Ground track
Ground track

The orbit data is extracted from the following two-line orbital elements,

1 20303U 89085B   20294.49662599 +.00002332 +00000-0 +75568-4 0  9990
2 20303 035.6363 304.7147 0094414 208.9793 150.5671 15.27710500687196
Epoch (UTC): 20 October 2020 11:55:08
Eccentricity: 0.0094414
inclination: 35.6363°
perigee height: 418 km
apogee height: 547 km
right ascension of ascending node: 304.7147°
argument of perigee: 208.9793°
revolutions per day: 15.27710500
mean anomaly at epoch: 150.5671°
orbit number at epoch: 68719

The dashed part of the orbit path shows where the satellite is in the earth's shadow,  

DLR